Lid_Strength_Index
7 8 10 8 7 7 7 8 9 7 6 7 7 7 6 5 5 5 5 4 4 4 2 2 2 1 1 1 2 1 1 1 1 1 2 1 2 1 0 -0 -0 -0 0 1
9 10 8 7 6 7 8 9 9 7 6 7 7 8 6 5 5 5 5 4 4 4 3 2 2 2 2 2 2 2 1 1 1 1 1 1 1 1 0 0 0 1 1 2
12 9 7 7 7 8 8 9 9 9 7 7 7 9 7 6 5 5 4 4 4 4 4 3 3 2 2 2 2 2 1 1 1 1 1 1 1 1 1 2 2 2 2 2
10 9 9 8 9 8 9 7 7 8 9 12 7 12 8 7 6 6 5 5 4 4 3 3 3 3 3 2 2 1 1 1 1 1 1 2 2 3 3 3 3 3 3 2
11 10 11 11 10 8 9 6 7 8 9 9 9 11 10 7 8 7 5 5 4 4 3 3 3 2 2 2 2 2 2 1 1 1 1 2 2 2 2 3 4 4 3 2
9 7 8 9 9 8 8 8 8 8 9 13 10 11 11 9 8 6 5 5 4 4 3 3 2 2 3 2 2 2 2 2 1 1 1 2 2 3 4 5 5 4 3 3
9 9 7 7 9 8 9 10 13 15 15 15 9 11 10 7 6 6 6 5 4 4 4 3 3 3 3 3 3 2 2 2 2 1 2 2 2 3 4 5 5 4 4 4
13 14 9 7 9 10 10 11 14 18 17 15 10 13 10 6 5 5 4 4 4 4 4 4 3 3 3 3 3 3 2 3 2 2 2 2 2 4 4 4 4 4 5 4
13 12 7 7 6 7 10 12 9 12 12 15 12 10 7 6 6 6 5 5 5 4 4 3 3 3 3 3 3 3 3 2 2 2 3 4 4 4 4 4 4 4 5 4
10 14 8 7 6 7 9 8 13 12 20 21 15 13 12 8 8 6 6 5 5 4 4 4 3 3 3 3 3 2 3 4 4 6 6 6 6 6 5 5 6 5 5 6
8 11 12 8 9 10 10 11 10 11 15 20 20 16 8 8 7 7 6 5 5 4 4 4 3 3 3 3 3 3 4 5 6 7 7 8 7 6 6 6 7 6 7 6
8 11 14 13 8 7 8 10 10 15 16 15 16 15 7 7 6 6 6 5 4 4 4 4 4 3 4 3 4 5 4 6 6 7 7 7 6 7 7 7 7 6 7 6
8 13 18 14 11 9 10 9 9 11 11 15 18 16 7 6 6 6 6 5 5 4 4 4 4 4 4 4 3 4 5 6 6 6 7 8 8 8 8 8 6 7 7 7
7 12 15 18 14 11 13 10 9 11 16 14 14 12 9 8 7 6 6 5 5 4 4 4 4 4 4 3 3 4 4 5 6 7 7 8 8 8 8 7 8 8 8 8
7 12 11 11 11 11 11 11 11 11 11 14 12 11 9 8 7 6 5 5 5 5 5 4 4 4 4 4 4 5 6 5 6 7 8 10 8 8 8 8 9 8 8 8
7 12 11 14 11 11 13 11 10 10 10 10 10 10 7 6 5 6 5 5 5 5 5 4 4 4 4 4 4 5 5 6 7 8 9 8 8 9 9 9 9 9 9 9
10 11 14 17 12 13 16 12 11 10 8 10 13 9 7 7 6 6 6 5 5 5 5 4 4 4 4 3 3 4 6 6 7 8 8 9 9 9 10 10 10 10 10 10
11 13 13 16 14 20 12 8 9 10 8 7 8 8 7 7 6 5 4 5 5 4 4 4 4 3 3 3 3 3 6 6 7 8 8 9 9 10 10 10 10 10 10 10
8 12 15 17 16 13 12 10 10 10 11 7 8 7 6 6 5 6 4 4 4 4 3 3 3 3 3 3 3 4 5 7 7 8 9 10 10 11 11 11 11 10 10 10
8 9 14 15 18 19 11 9 8 7 15 8 7 7 7 6 9 7 4 4 4 3 3 3 3 3 3 3 4 5 6 7 8 9 10 10 10 11 11 11 11 11 10 10
12 13 15 15 16 13 8 8 6 15 14 7 7 7 7 8 6 5 4 4 3 3 4 3 3 3 3 4 4 6 7 8 8 9 10 11 11 11 11 11 11 11 11 11
13 14 14 15 17 18 6 7 11 8 6 6 7 7 7 6 5 5 4 4 4 4 4 4 4 4 4 4 5 7 8 8 10 11 12 11 11 11 11 11 11 11 11 12
13 10 13 12 12 7 6 7 6 6 7 7 7 6 6 6 5 5 5 4 5 5 5 4 4 5 5 6 7 9 11 11 12 12 12 12 12 11 11 12 12 12 12 13
8 7 11 11 9 7 6 5 5 5 6 5 6 6 6 6 5 5 5 5 7 7 8 7 7 8 9 8 9 12 12 12 13 13 14 13 13 13 13 13 13 13 13 13
8 7 9 9 8 7 6 5 5 5 5 5 5 6 7 7 7 6 7 8 8 8 9 10 11 11 11 11 12 12 12 12 13 14 14 15 15 14 14 14 13 13 12 12
7 8 11 12 7 7 7 5 5 6 6 6 6 5 5 8 8 8 8 8 9 9 9 10 11 11 11 12 12 12 12 12 13 14 14 14 14 15 14 15 15 14 15 15